Weather in Kullar

Russia / Republic of Dagestan     41°50′00″N   48°23′32″E
temp.,
°C
wind,
m/s
gust,
m/s
humid.,
%
clouds,
%
prec.,
mm/h
press.,
hPa
HPBL,
m
14 may, fri
fri1400:00+14n01855 0.0 101510
03:00+14w007866 0.0 101411
06:00+17sse12702 0.0 101542
09:00+23se47535 0.0 1015409
12:00+26ese59455 0.0 1015585
15:00+25ese484711 0.0 1014472
18:00+21se3462100 0.0 101453
21:00+18s336249 0.0 101539
15 may, sat
sat1500:00+18sw22615 0.0 101416
03:00+16ssw22664 0.0 101412
06:00+19ssw22620 0.0 101446
09:00+26ese45400 0.0 1014524
12:00+28ese79290 0.0 1013937
15:00+27se712310 0.0 1013715
18:00+21sse34480 0.0 101349
21:00+17sw22520 0.0 101314
16 may, sun
sun1600:00+17ssw11605 0.0 101313
03:00+16ssw22620 0.0 101212
06:00+19ssw23610 0.0 101256
09:00+26se59290 0.0 1012612
12:00+30ese1012240 0.0 10101440
15:00+27ese1017320 0.0 1008771
18:00+23se819370 0.0 1008476
21:00+19s36440 0.0 100999
17 may, mon
mon1700:00+18ssw33360 0.0 100820
03:00+17ssw22340 0.0 100814
06:00+19s22465 0.0 100836
09:00+25ene21346 0.0 1007397
12:00+28ene32315 0.0 1006658
15:00+27n3338100 0.0 1005372
18:00+21nnw23610 0.0 100596
21:00+17wnw22630 0.0 100718
18 may, tue
tue1800:00+18wsw115359 0.0 100611
03:00+15wsw337250 0.0 100737
06:00+21wsw005247 0.0 100730
09:00+23ne32496 0.0 1009419
12:00+25nne5454100 0.1 1009578
15:00+25n47534 0.1 1009721
18:00+21w3671100 0.3 1012148
21:00+20wsw5879100 0.4 1012156